Back to catalog

THOR DELTA 1 DEB

AlivePO
NORAD 33515·DEBRIS·🇺🇸 United States

Launched Apr 1, 1971 from Vandenberg Space Force Base

Loading…

Next Passes (next 24 hours)

TLE

AgingSource: Space-Track

Epoch: Sep 9, 2026, 16:14 UTC

1 33515U 71024F   26252.67701598  .00000596  00000-0  22640-2 0  9997
2 33515  88.1404 215.7549 0037714  23.9089  98.2385 12.88952355261428

Track THOR DELTA 1 DEB in real time with AllMySat

Download on the App Store